Погода в Карагайле

Россия / Кемеровская область (Кузбасс)     54°10′12″N   86°33′18″E
темп.,
°C
ветер,
м/с
пор.,
м/с
влажн.,
%
обл.,
%
осадки,
мм/ч
давл.,
гПа
погр.,
м
19 сентября, вс
вс1901:00+6сз11827 0.0 101110
04:00+5ююз1184100 0.0 101210
07:00+6ююз3673100 0.0 1012143
10:00+10ююз5955100 0.0 1010922
13:00+13ююз6844100 0.0 10081466
16:00+15ююз5739100 0.0 10061640
19:00+12ююв4649100 0.0 100590
22:00+14ююз7144592 0.0 1003887
20 сентября, пн
пн2001:00+7юз378369 0.0 1007191
04:00+4з498970 0.1 1008287
07:00+5юз4982100 0.2 1011312
10:00+7юз7107192 0.1 10121153
13:00+9зюз91349100 0.4 10132035
16:00+8зюз81248100 0.0 10131979
19:00+7юз5952100 0.1 1013617
22:00+5юз4765100 0.0 1013339
21 сентября, вт
вт2101:00+3юз61189100 0.0 1013665
04:00+3зюз61196100 0.4 1013668
07:00+3юз51083100 0.6 1014969
10:00+3зюз7107198 0.2 10151088
13:00+5зюз796399 0.3 10151341
16:00+4зюз81190100 0.2 1016991
19:00+3з61096100 0.4 1018759
22:00+3зюз4998100 0.4 1019710
22 сентября, ср
ср2201:00+3зюз4889100 0.8 1020620
04:00+2юз488599 0.1 1020367
07:00+1юз4991100 0.1 1021352
10:00+3юз4788100 0.1 1022656
13:00+2зюз479294 0.5 1022442
16:00+5зюз566699 0.2 10221172
19:00+2юз238078 0.3 102236
22:00+1ююз2386100 0.0 102268
23 сентября, чт
чт2301:00+1ю2282100 0.0 102122
04:00+1ю1289100 0.0 102174
07:00+1ююв1292100 0.0 102167
10:00+2юз3487100 0.1 1021469
13:00+3юз3485100 0.6 1021660
16:00+4зюз3477100 0.6 1022787
19:00+2з228092 0.8 102327
22:00+1зсз1192100 0.0 102410